Orbital Elements at Epoch 2459200.5 (2020-Dec-17.0) TDB
Reference: JPL 19 (heliocentric ecliptic J2000)
Element | Value | Uncertainty (1-sigma) | Units |
e | .2434311047382202 | 3.2085e-08 | |
a | 2.340610102137942 | 8.4039e-09 | au |
q | 1.770832799213065 | 7.7215e-08 | au |
i | 4.51434943682514 | 4.484e-06 | deg |
node | 47.54085531403874 | 4.4981e-05 | deg |
peri | 270.3928518120371 | 4.5808e-05 | deg |
M | 126.024066619844 | 9.6302e-06 | deg |
tp | 2458742.629115217087 (2019-Sep-16.12911522) | 3.4101e-05 | TDB |
period | 1307.952702550654 3.58 | 7.0443e-06 1.929e-08 | d yr |
n | .2752393104872675 | 1.4824e-09 | deg/d |
Q | 2.91038740506282 | 1.045e-08 | au |
|
| | Orbit Determination Parameters
Additional Information
|